• In Hungary
  • List of Countries
  • For 7 days
  • Water Temperature
  • Satellite Maps
  • Weather Map
  • News
  • Weather Widgets
  • user-avatar
    Login

    Hourly Weather Orsha

    Today, 24 October, Tuesday

    Time Temperature Precipitation Wind Pressure Humidity
    00:00 -2°C° 0 mm 3 mps 752 mmHg 77%
    01:00 -4°C° 0 mm 3 mps 752 mmHg 77%
    02:00 -4°C° 0 mm 3 mps 753 mmHg 77%
    03:00 -4°C° 0 mm 3 mps 753 mmHg 77%
    04:00 -4°C° 0 mm 3 mps 753 mmHg 78%
    05:00 -4°C° 0 mm 3 mps 753 mmHg 78%
    06:00 -4°C° 0 mm 3 mps 754 mmHg 76%
    07:00 -2°C° 0 mm 3 mps 754 mmHg 75%
    08:00 -3°C° 0 mm 4 mps 755 mmHg 74%
    09:00 -2°C° 0 mm 4 mps 755 mmHg 67%
    10:00 -1°C° 0 mm 4 mps 755 mmHg 61%
    11:00 0°C° 0 mm 4 mps 756 mmHg 55%
    12:00 0°C° 0 mm 4 mps 756 mmHg 54%
    13:00 +2°C° 0 mm 3 mps 756 mmHg 53%
    14:00 +2°C° 0 mm 3 mps 756 mmHg 52%
    15:00 +1°C° 0 mm 3 mps 756 mmHg 57%
    16:00 -1°C° 0 mm 3 mps 756 mmHg 62%
    17:00 -2°C° 0 mm 2 mps 756 mmHg 68%
    18:00 -2°C° 0 mm 2 mps 757 mmHg 69%
    19:00 -3°C° 0 mm 2 mps 757 mmHg 71%
    20:00 -3°C° 0 mm 2 mps 757 mmHg 72%
    21:00 -3°C° 0 mm 2 mps 757 mmHg 73%
    22:00 -3°C° 0 mm 2 mps 757 mmHg 73%
    23:00 -3°C° 0 mm 2 mps 758 mmHg 74%

    Tomorrow, 25 October, Wednesday

    Time Temperature Precipitation Wind Pressure Humidity
    00:00 -4°C° 0 mm 2 mps 758 mmHg 75%
    01:00 -4°C° 0 mm 2 mps 758 mmHg 75%
    02:00 -4°C° 0 mm 2 mps 758 mmHg 76%
    03:00 -4°C° 0 mm 2 mps 758 mmHg 77%
    04:00 -4°C° 0 mm 2 mps 758 mmHg 77%
    05:00 -4°C° 0 mm 2 mps 758 mmHg 78%
    06:00 -4°C° 0 mm 2 mps 758 mmHg 76%
    07:00 -3°C° 0 mm 2 mps 758 mmHg 75%
    08:00 -4°C° 0 mm 3 mps 758 mmHg 73%
    09:00 -2°C° 0 mm 3 mps 758 mmHg 67%
    10:00 -1°C° 0 mm 3 mps 758 mmHg 61%
    11:00 +1°C° 0 mm 3 mps 758 mmHg 54%
    12:00 +1°C° 0 mm 3 mps 757 mmHg 53%
    13:00 +1°C° 0 mm 3 mps 757 mmHg 51%
    14:00 +2°C° 0 mm 3 mps 756 mmHg 50%
    15:00 0°C° 0 mm 3 mps 756 mmHg 55%
    16:00 -1°C° 0 mm 3 mps 755 mmHg 60%
    17:00 -2°C° 0 mm 3 mps 755 mmHg 65%
    18:00 -2°C° 0 mm 3 mps 754 mmHg 65%
    19:00 -3°C° 0 mm 4 mps 754 mmHg 65%
    20:00 -3°C° 0 mm 4 mps 754 mmHg 65%
    21:00 -4°C° 0 mm 5 mps 753 mmHg 64%
    22:00 -4°C° 0 mm 5 mps 753 mmHg 64%
    23:00 -3°C° 0 mm 6 mps 752 mmHg 63%

    Day after tomorrow, 26 October, Thursday

    Time Temperature Precipitation Wind Pressure Humidity
    00:00 -3°C° 0.4 mm 6 mps 752 mmHg 69%
    01:00 -3°C° 0.4 mm 6 mps 751 mmHg 75%
    02:00 -2°C° 0.4 mm 5 mps 750 mmHg 81%
    03:00 -3°C° 0.6 mm 6 mps 750 mmHg 84%
    04:00 -3°C° 0.6 mm 6 mps 749 mmHg 87%
    05:00 -3°C° 0.6 mm 6 mps 748 mmHg 90%
    06:00 -3°C° 0.1 mm 6 mps 748 mmHg 89%
    07:00 -3°C° 0.1 mm 6 mps 747 mmHg 89%
    08:00 -1°C° 0.1 mm 5 mps 747 mmHg 89%
    09:00 -1°C° 0.1 mm 5 mps 747 mmHg 89%
    10:00 -1°C° 0.1 mm 5 mps 746 mmHg 90%
    11:00 0°C° 0.1 mm 4 mps 746 mmHg 90%
    12:00 0°C° 0.2 mm 4 mps 745 mmHg 92%
    13:00 0°C° 0.2 mm 4 mps 745 mmHg 93%
    14:00 +1°C° 0.2 mm 4 mps 745 mmHg 95%
    15:00 +1°C° 0.3 mm 4 mps 744 mmHg 96%
    16:00 +1°C° 0.3 mm 4 mps 744 mmHg 97%
    17:00 +3°C° 0.3 mm 4 mps 743 mmHg 98%
    18:00 +3°C° 0.2 mm 4 mps 743 mmHg 98%
    19:00 +4°C° 0.2 mm 4 mps 743 mmHg 98%
    20:00 +4°C° 0.2 mm 4 mps 742 mmHg 97%
    21:00 +4°C° 0.1 mm 4 mps 742 mmHg 97%
    22:00 +4°C° 0.1 mm 4 mps 742 mmHg 97%
    23:00 +4°C° 0.1 mm 4 mps 742 mmHg 97%

    27 October, Friday

    Time Temperature Precipitation Wind Pressure Humidity
    00:00 +4°C° 0.1 mm 4 mps 741 mmHg 97%
    01:00 +4°C° 0.1 mm 4 mps 741 mmHg 97%
    02:00 +4°C° 0.1 mm 4 mps 741 mmHg 98%
    03:00 +4°C° 0.1 mm 3 mps 740 mmHg 98%
    04:00 +4°C° 0.1 mm 3 mps 740 mmHg 98%
    05:00 +4°C° 0.1 mm 3 mps 739 mmHg 98%
    06:00 +4°C° 0.1 mm 3 mps 739 mmHg 98%
    07:00 +4°C° 0.1 mm 3 mps 739 mmHg 97%
    08:00 +5°C° 0.1 mm 3 mps 739 mmHg 97%
    09:00 +5°C° 0.4 mm 3 mps 738 mmHg 96%
    10:00 +5°C° 0.4 mm 3 mps 738 mmHg 95%
    11:00 +6°C° 0.4 mm 4 mps 738 mmHg 94%
    12:00 +6°C° 0.4 mm 4 mps 738 mmHg 92%
    13:00 +6°C° 0.4 mm 4 mps 737 mmHg 90%
    14:00 +8°C° 0.4 mm 3 mps 737 mmHg 89%
    15:00 +7°C° 0.2 mm 3 mps 737 mmHg 91%
    16:00 +7°C° 0.2 mm 3 mps 736 mmHg 93%
    17:00 +6°C° 0.2 mm 2 mps 736 mmHg 95%
    18:00 +6°C° 0.2 mm 2 mps 736 mmHg 96%
    19:00 +5°C° 0.2 mm 2 mps 736 mmHg 96%
    20:00 +5°C° 0.2 mm 2 mps 735 mmHg 97%
    21:00 +4°C° 0 mm 2 mps 735 mmHg 97%
    22:00 +4°C° 0 mm 2 mps 735 mmHg 97%
    23:00 +4°C° 0 mm 2 mps 735 mmHg 97%

    28 October, Saturday

    Time Temperature Precipitation Wind Pressure Humidity
    00:00 +4°C° 0.1 mm 2 mps 734 mmHg 97%
    01:00 +4°C° 0.1 mm 2 mps 734 mmHg 97%
    02:00 +5°C° 0.1 mm 1 mps 734 mmHg 98%
    03:00 +5°C° 0.2 mm 1 mps 734 mmHg 98%
    04:00 +5°C° 0.2 mm 1 mps 734 mmHg 98%
    05:00 +5°C° 0.2 mm 1 mps 733 mmHg 98%
    06:00 +5°C° 0.1 mm 2 mps 733 mmHg 98%
    07:00 +5°C° 0.1 mm 2 mps 733 mmHg 97%
    08:00 +5°C° 0.1 mm 2 mps 733 mmHg 97%
    09:00 +5°C° 0.1 mm 2 mps 733 mmHg 95%
    10:00 +6°C° 0.1 mm 2 mps 733 mmHg 93%
    11:00 +7°C° 0.1 mm 2 mps 733 mmHg 90%
    12:00 +7°C° 0.1 mm 2 mps 733 mmHg 89%
    13:00 +7°C° 0.1 mm 2 mps 733 mmHg 88%
    14:00 +7°C° 0.1 mm 2 mps 733 mmHg 87%
    15:00 +6°C° 0.2 mm 2 mps 733 mmHg 88%
    16:00 +5°C° 0.2 mm 3 mps 733 mmHg 89%
    17:00 +4°C° 0.2 mm 3 mps 732 mmHg 91%
    18:00 +3°C° 0.2 mm 3 mps 732 mmHg 90%
    19:00 +3°C° 0.2 mm 3 mps 732 mmHg 89%
    20:00 +3°C° 0.2 mm 3 mps 733 mmHg 88%
    21:00 +2°C° 0.3 mm 3 mps 733 mmHg 88%
    22:00 +2°C° 0.3 mm 3 mps 733 mmHg 88%
    23:00 +2°C° 0.3 mm 3 mps 733 mmHg 88%

    29 October, Sunday

    Time Temperature Precipitation Wind Pressure Humidity
    00:00 +2°C° 0.1 mm 3 mps 733 mmHg 89%
    01:00 +2°C° 0.1 mm 2 mps 733 mmHg 90%
    02:00 +2°C° 0.1 mm 2 mps 733 mmHg 91%
    03:00 +2°C° 0 mm 2 mps 733 mmHg 92%
    04:00 +2°C° 0 mm 2 mps 733 mmHg 93%
    05:00 +1°C° 0 mm 2 mps 733 mmHg 94%
    06:00 +1°C° 0 mm 2 mps 733 mmHg 94%
    07:00 +1°C° 0 mm 2 mps 733 mmHg 95%
    08:00 +1°C° 0 mm 2 mps 734 mmHg 95%
    09:00 +2°C° 0 mm 2 mps 734 mmHg 90%
    10:00 +3°C° 0 mm 2 mps 734 mmHg 85%
    11:00 +4°C° 0 mm 2 mps 735 mmHg 80%
    12:00 +5°C° 0 mm 2 mps 735 mmHg 78%
    13:00 +5°C° 0 mm 2 mps 735 mmHg 76%
    14:00 +5°C° 0 mm 2 mps 735 mmHg 73%
    15:00 +5°C° 0 mm 2 mps 735 mmHg 77%
    16:00 +5°C° 0 mm 1 mps 735 mmHg 81%
    17:00 +4°C° 0 mm 1 mps 735 mmHg 86%
    18:00 +4°C° 0 mm 1 mps 735 mmHg 87%
    19:00 +3°C° 0 mm 1 mps 735 mmHg 88%
    20:00 +3°C° 0 mm 1 mps 735 mmHg 90%
    21:00 +3°C° 0 mm 1 mps 735 mmHg 91%
    22:00 +2°C° 0 mm 1 mps 735 mmHg 91%
    23:00 +2°C° 0 mm 1 mps 735 mmHg 92%

    30 October, Monday

    Time Temperature Precipitation Wind Pressure Humidity
    00:00 +2°C° 0 mm 1 mps 734 mmHg 92%
    01:00 +2°C° 0 mm 1 mps 734 mmHg 93%
    02:00 +1°C° 0 mm 1 mps 734 mmHg 93%
    03:00 -1°C° 0 mm 2 mps 734 mmHg 93%
    04:00 -1°C° 0 mm 2 mps 734 mmHg 94%
    05:00 -1°C° 0 mm 2 mps 733 mmHg 94%
    06:00 -1°C° 0 mm 2 mps 733 mmHg 93%
    07:00 0°C° 0 mm 3 mps 733 mmHg 93%
    08:00 0°C° 0 mm 3 mps 733 mmHg 92%
    09:00 +1°C° 0 mm 3 mps 733 mmHg 88%
    10:00 +1°C° 0 mm 4 mps 733 mmHg 84%
    11:00 +2°C° 0 mm 5 mps 732 mmHg 80%
    12:00 +3°C° 0 mm 5 mps 732 mmHg 80%
    13:00 +3°C° 0 mm 5 mps 731 mmHg 79%
    14:00 +3°C° 0 mm 5 mps 731 mmHg 78%
    15:00 +3°C° 0.1 mm 5 mps 730 mmHg 81%
    16:00 +3°C° 0.1 mm 5 mps 730 mmHg 83%
    17:00 +2°C° 0.1 mm 5 mps 729 mmHg 85%
    18:00 +2°C° 0.5 mm 6 mps 729 mmHg 85%
    19:00 +2°C° 0.5 mm 6 mps 729 mmHg 86%
    20:00 +2°C° 0.5 mm 6 mps 728 mmHg 86%
    21:00 +2°C° 0.2 mm 6 mps 728 mmHg 88%
    22:00 +2°C° 0.2 mm 5 mps 728 mmHg 90%
    23:00 +3°C° 0.2 mm 5 mps 728 mmHg 92%
    Show more